SCP
0 -0 -0 0 -0 0 -0 -0 0 0 0 0 0 0 0 0 0 0 0 0 0 0 0 0 0 -0 0 0 0 0 0 0 0 0 0 0 0 0 0 0 0 0 0 0 0
-0 -0 0 0 0 -0 -0 -0 -0 0 0 0 0 0 0 0 0 0 0 0 0 0 0 0 0 0 0 -0 -0 -0 0 0 0 0 -0 -0 0 0 0 0 0 0 0 0 0
-0 -0 -0 -0 -0 -0 -0 -0 -0 0 0 0 0 0 0 0 0 0 0 0 0 0 0 0 0 0 0 0 0 0 0 -0 0 0 0 -0 0 0 0 0 0 -0 -0 -0 -0
-0 -0 -0 -0 -0 -0 -0 -0 -0 -0 0 0 0 0 0 0 0 0 0 0 0 0 0 0 0 0 0 0 0 0 0 0 0 0 0 0 0 0 -0 -0 0 -0 -0 -0 -0
-0 -0 -0 -0 -0 -0 -0 -0 -0 -0 -0 0 0 0 0 0 0 0 0 0 0 0 0 0 0 0 0 0 0 0 0 0 0 0 0 0 0 -0 -0 -0 0 -0 0 -0 -0
-0 -0 -0 -0 -0 -0 -0 -0 -0 -0 0 0 0 0 0 0 0 0 0 0 0 0 0 0 0 0 0 0 0 0 0 0 0 0 0 0 0 0 0 -0 0 -0 0 -0 -0
-0 -0 -0 -0 -0 -0 -0 -0 -0 -0 0 0 -0 0 0 0 0 0 0 0 0 0 0 0 0 0 0 0 0 0 0 0 0 0 0 0 0 0 0 0 0 -0 0 -0 -0
-0 -0 -0 -0 -0 -0 -0 -0 -0 0 0 0 -0 -0 0 0 0 0 0 0 0 0 0 0 0 0 0 0 0 0 0 0 0 0 0 0 0 0 0 0 0 -0 -0 0 0
0 0 -0 -0 -0 -0 -0 -0 -0 0 0 0 0 0 0 0 0 0 0 0 0 0 0 0 0 0 0 0 0 0 0 0 0 0 0 0 0 0 0 0 0 0 -0 0 -0
0 0 -0 -0 -0 -0 -0 0 0 0 0 0 0 0 0 0 0 0 0 0 0 0 0 0 0 0 0 0 0 0 0 0 0 0 0 0 0 0 0 0 0 0 0 -0 -0
0 0 0 -0 -0 -0 0 0 0 0 0 0 0 0 0 0 0 0 0 0 0 0 0 0 0 0 0 0 0 0 0 0 0 0 0 0 0 0 0 0 0 0 0 0 0
0 0 0 0 0 0 0 0 0 0 0 0 0 0 0 0 0 0 0 0 0 0 0 0 0 0 0 0 0 0 0 0 0 0 0 0 0 0 0 0 0 0 0 0 0
0 0 0 0 0 0 0 0 0 0 0 0 0 0 0 0 0 0 0 0 0 0 0 0 0 0 0 0 0 0 0 0 0 0 0 0 0 0 0 0 0 0 0 0 0
0 0 0 0 0 0 0 0 0 0 0 0 0 0 0 0 0 0 0 0 0 0 0 0 0 0 0 0 0 0 0 0 0 0 0 0 0 0 0 0 0 0 0 0 0
0 0 0 0 0 0 0 0 0 0 0 0 0 0 0 0 0 0 0 0 0 0 0 0 0 0 0 0 0 0 0 0 0 0 0 0 0 0 0 0 0 0 0 0 0
0 0 0 0 0 0 0 0 0 0 0 0 0 0 0 0 0 0 0 0 0 0 0 0 0 0 0 0 0 0 0 0 0 0 0 0 0 0 0 0 0 0 0 0 0
0 0 0 0 0 0 0 0 0 0 0 0 0 0 0 0 0 0 0 0 0 0 0 0 0 0 0 0 0 0 0 0 0 0 0 0 0 0 0 0 0 0 0 0 0
0 0 0 0 0 0 0 0 0 0 0 0 0 0 0 0 0 0 0 0 0 0 0 0 0 0 0 0 0 0 0 0 0 0 0 0 0 0 0 0 0 0 0 0 -0
0 0 0 0 0 0 0 0 0 0 0 0 0 0 0 0 0 0 0 0 0 0 0 0 0 0 0 0 0 0 0 0 0 0 0 0 0 0 0 0 0 0 0 -0 -0
0 0 0 0 0 0 0 0 0 0 0 0 0 0 0 0 0 0 0 0 0 0 0 0 0 0 0 0 0 0 0 0 0 0 0 0 0 0 0 0 -0 -0 -0 -0 -0
0 0 0 0 0 0 0 0 0 0 0 0 0 0 0 0 0 0 0 0 0 0 0 0 0 0 0 0 0 0 0 0 0 0 0 0 0 0 0 0 -0 -0 -0 -0 0
0 0 0 0 0 0 0 0 0 0 0 0 0 0 0 0 0 0 0 0 0 0 0 0 0 0 0 0 0 0 0 0 0 0 0 0 0 0 0 0 0 -0 -0 -0 -0
0 0 0 0 0 0 0 0 0 0 0 0 0 0 0 0 0 0 0 0 0 0 0 0 0 0 0 0 0 0 0 0 0 0 0 0 0 0 0 0 0 0 0 0 0
0 0 0 0 0 0 0 0 0 0 0 0 0 0 0 0 0 0 0 0 0 0 0 0 0 0 0 0 0 0 0 0 0 0 0 0 0 0 0 0 0 0 0 0 0
0 0 0 0 0 0 0 0 0 0 0 0 0 0 0 0 0 0 0 0 0 0 0 0 0 0 0 0 0 0 0 0 0 0 0 0 0 0 0 0 0 0 0 0 0
0 0 0 0 0 0 0 0 0 0 0 0 0 0 0 0 0 0 0 0 0 0 0 0 0 0 0 0 0 0 0 0 0 0 0 0 0 0 0 0 0 0 0 0 0
0 0 0 0 0 0 0 0 0 0 0 0 0 0 0 0 0 0 0 0 0 0 0 0 0 0 0 0 0 0 0 0 0 0 0 0 0 0 0 0 0 0 0 0 0
Wind_Speed_500mb
17 19 22 27 31 34 32 29 31 35 37 37 38 25 10 18 43 62 77 55 43 42 33 32 16 24 29 24 21 16 10 5 9 8 7 10 4 6 11 16 12 14 18 12 15
14 17 20 24 30 33 32 27 28 30 32 32 25 35 18 7 31 65 54 51 39 40 40 35 39 25 17 20 19 17 8 20 8 8 7 12 8 9 5 8 19 35 37 28 24
13 15 17 21 24 29 29 29 31 33 31 31 29 24 40 4 19 45 46 48 45 30 36 40 29 31 21 25 27 14 4 4 6 14 18 14 9 12 7 11 32 17 19 27 26
12 14 14 18 20 25 32 33 31 30 30 26 29 24 24 25 10 34 39 41 45 32 30 27 35 14 12 13 15 14 14 2 10 14 14 12 10 10 30 15 10 16 27 24 26
12 13 15 18 21 24 30 33 31 28 31 21 22 26 13 26 24 30 33 35 37 45 47 18 45 11 10 8 8 11 5 2 6 14 14 10 18 15 33 27 33 30 28 30 29
15 16 16 17 17 20 27 31 28 25 29 21 14 25 20 18 30 35 33 27 33 36 46 48 19 18 20 11 10 9 11 11 8 7 10 9 7 8 11 20 32 30 31 29 32
15 16 16 17 17 21 27 27 26 23 25 20 13 4 25 21 29 36 33 30 30 32 32 36 36 8 7 7 13 15 4 3 11 11 9 15 9 16 12 17 26 29 24 26 29
12 14 16 18 21 24 28 29 23 17 20 16 13 6 9 20 26 37 31 30 24 22 22 21 21 28 15 13 5 5 5 8 5 8 4 7 14 9 17 21 29 32 33 31 27
12 16 19 21 22 25 28 30 20 12 20 12 11 5 6 16 25 36 36 29 17 15 22 19 12 16 12 5 7 15 7 9 9 18 5 0 16 9 15 23 32 32 32 33 32
13 16 19 21 23 24 27 28 18 8 22 5 10 4 11 19 20 32 35 22 18 18 7 13 14 9 10 19 8 11 11 11 9 4 4 11 27 21 35 35 41 37 37 36 35
13 16 18 20 22 24 25 18 12 3 24 14 11 5 12 24 14 29 35 18 20 15 11 14 18 10 10 5 7 10 8 10 9 0 14 8 16 24 18 36 41 45 41 42 42
9 13 16 17 17 21 23 15 15 8 7 11 11 9 11 21 9 31 32 18 19 11 20 12 7 7 12 4 4 6 8 10 16 9 9 12 24 10 7 12 33 40 38 40 40
8 10 12 15 13 18 22 24 22 21 4 6 10 9 9 16 10 26 32 13 15 11 13 9 7 16 4 7 14 6 8 10 11 20 5 16 12 12 3 5 15 29 37 38 38
12 13 13 14 7 16 14 22 24 21 9 7 8 7 10 12 7 17 24 14 11 6 5 8 8 8 9 10 8 12 4 6 13 14 3 14 7 8 9 16 8 20 26 33 35
14 14 12 10 8 10 12 18 20 7 8 4 6 9 13 8 11 11 18 9 5 5 1 3 9 9 10 5 4 10 5 5 3 5 5 18 9 13 11 12 13 26 33 34 31
13 10 9 7 5 9 12 15 8 12 10 7 6 8 8 7 7 10 8 10 7 4 8 4 3 4 3 6 5 11 4 2 5 4 7 7 8 11 8 10 13 20 38 45 48
8 3 4 6 6 9 13 9 10 9 7 8 3 7 4 8 8 8 7 8 3 9 8 4 3 3 7 8 3 9 10 9 12 10 9 5 6 16 13 9 8 12 30 42 57
10 7 6 6 6 7 8 10 7 6 12 2 2 2 3 6 2 8 5 7 3 7 4 4 11 6 10 6 2 7 4 9 9 5 10 6 9 7 8 4 22 24 35 50 73
14 12 12 10 9 5 2 7 14 13 5 8 3 0 6 1 2 9 2 5 4 5 9 6 9 1 5 3 2 4 5 6 13 3 7 7 15 14 9 3 28 40 49 58 60
15 14 20 19 17 11 7 11 7 7 6 2 7 8 7 6 2 1 4 4 7 6 3 7 6 2 2 2 6 2 7 5 6 2 8 10 10 11 12 7 15 30 43 53 63
13 8 9 9 12 12 7 14 10 14 13 10 11 7 8 5 9 7 8 2 4 4 3 6 6 4 3 9 10 3 2 5 4 7 9 5 11 14 8 5 8 14 46 61 71
11 4 8 16 6 2 6 12 3 9 14 11 6 14 13 10 8 10 14 6 4 2 6 1 8 6 12 0 2 5 7 8 8 10 7 4 15 20 14 16 33 66 70 73 71
12 17 19 24 6 5 7 6 8 9 11 11 13 14 9 15 5 11 4 1 2 8 10 9 3 5 13 5 3 8 8 7 7 6 13 7 14 6 31 60 62 61 70 69 56
14 3 17 33 20 12 10 12 10 16 9 10 6 5 6 10 8 9 7 8 4 5 6 1 1 13 12 8 8 7 6 7 10 6 26 27 54 38 31 23 37 41 55 42 50
29 18 24 8 12 19 18 12 13 13 18 17 4 12 13 11 5 11 8 6 5 6 5 7 9 6 9 10 7 12 17 21 20 33 21 46 39 35 27 14 30 37 54 60 46
29 16 18 9 17 34 27 19 25 7 18 11 12 15 15 20 23 12 11 7 8 4 7 4 6 5 8 9 8 10 20 29 32 27 21 34 42 11 25 34 39 50 64 58 36
63 46 27 21 14 13 17 25 29 29 22 16 28 12 12 20 7 4 9 3 11 11 7 5 6 4 11 5 9 13 23 29 9 12 12 11 4 19 26 42 45 62 67 49 58
Wind_Direction_500mb
55 46 44 36 30 28 22 18 18 20 22 25 30 31 20 23 29 27 33 16 12 22 22 30 100 84 89 55 47 102 86 138 185 177 193 175 219 254 259 264 268 241 243 249 216
34 30 30 26 26 27 27 24 20 20 19 18 22 30 23 37 29 31 27 24 22 28 39 46 49 65 55 19 21 49 96 183 143 123 149 166 203 221 260 266 261 246 244 240 242
13 16 18 18 19 21 20 18 14 15 15 15 17 20 19 73 36 12 22 22 28 39 49 56 61 59 44 38 13 20 85 96 209 173 165 170 226 218 200 250 232 233 249 238 244
6 7 7 5 4 9 14 11 8 12 12 14 18 24 38 41 63 10 26 26 34 40 48 54 53 47 57 53 22 87 61 122 163 183 165 176 182 239 212 231 224 237 250 251 245
358 355 354 354 356 2 5 4 2 3 7 9 16 21 43 51 29 23 32 31 40 40 41 43 49 68 64 56 69 80 165 103 179 192 219 223 231 235 246 241 242 249 255 250 243
6 0 0 356 354 353 354 356 356 357 2 2 14 33 43 68 22 24 30 34 42 40 43 48 58 71 97 65 55 106 134 149 180 217 242 219 256 208 283 228 225 238 247 248 245
11 6 6 2 356 348 348 351 351 350 357 1 7 23 39 51 27 19 21 30 38 40 42 48 52 79 81 84 113 135 51 212 220 208 242 223 270 240 245 219 215 216 232 240 242
8 2 3 358 351 348 349 348 352 355 352 2 7 24 67 24 21 20 23 25 29 32 37 37 39 53 44 106 86 15 110 17 192 180 179 110 276 275 236 222 228 229 226 223 227
354 357 0 356 351 351 350 346 354 4 1 4 9 50 43 6 9 13 12 16 21 22 36 32 44 56 30 39 30 14 334 358 348 199 135 172 281 256 240 237 255 247 244 241 235
357 354 353 355 352 355 353 346 350 20 1 10 14 28 29 350 356 5 2 0 12 15 38 36 51 60 18 23 21 314 354 322 292 348 315 233 260 270 246 230 251 264 260 252 248
353 356 354 353 353 356 359 358 358 340 20 47 9 10 339 349 7 2 5 0 359 26 21 20 53 21 318 305 284 276 276 294 270 98 345 253 274 286 265 223 243 252 256 255 257
348 348 347 350 354 0 5 43 47 358 331 16 16 8 358 0 353 7 6 25 28 13 345 23 53 295 288 319 203 49 323 333 280 277 355 331 308 308 147 238 235 246 255 260 265
321 334 339 342 349 358 14 25 13 359 344 357 10 8 0 2 18 357 9 23 51 41 15 65 331 321 328 13 20 29 68 332 242 315 278 318 329 357 18 296 282 263 263 266 266
310 319 332 341 344 359 13 1 352 355 64 317 346 350 352 353 21 7 11 21 37 61 68 102 317 349 358 46 6 354 144 269 314 4 331 13 282 327 338 327 307 309 281 277 273
293 300 318 336 346 7 351 346 340 4 18 296 315 334 353 50 329 9 7 21 74 10 33 305 8 18 46 329 1 270 339 282 325 6 43 346 57 278 350 4 0 6 6 357 321
280 300 319 325 348 358 349 342 349 41 260 348 315 349 4 17 17 332 357 25 77 96 44 73 25 38 260 288 227 304 319 92 52 54 23 279 93 295 344 323 315 349 20 33 40
251 293 345 357 345 348 344 345 31 128 329 288 327 23 1 326 355 31 16 9 41 34 352 7 73 15 1 326 196 3 31 355 2 9 234 113 23 244 306 315 307 343 28 44 31
236 259 280 298 321 334 344 47 104 232 223 178 230 253 305 5 282 331 1 348 205 100 91 102 324 24 354 71 315 7 97 137 239 249 274 353 239 224 266 18 66 59 57 32 21
241 258 274 265 262 288 300 66 210 206 153 174 146 172 329 220 223 21 253 242 208 169 154 149 272 135 52 29 47 288 60 135 101 31 41 263 284 294 198 296 24 43 19 7 2
242 268 270 262 249 217 80 235 233 207 153 135 183 165 222 250 267 175 237 235 196 207 187 197 304 71 66 117 46 66 150 77 5 178 284 290 288 246 268 13 8 19 2 353 351
238 266 232 197 176 168 173 225 251 221 200 177 211 199 218 249 205 227 234 300 25 173 169 125 120 285 338 198 182 91 209 36 119 150 177 260 253 214 250 325 346 331 346 346 341
194 286 200 177 141 106 168 196 233 221 221 250 235 192 190 194 230 236 228 227 28 148 191 152 151 209 227 135 300 283 255 163 131 258 246 174 262 286 0 344 342 346 340 341 344
213 209 202 181 171 242 266 250 234 204 216 197 227 214 189 184 260 198 220 160 204 171 168 190 261 5 334 1 18 235 205 163 100 59 212 200 256 310 336 352 338 344 355 352 15
206 205 194 195 206 180 194 218 240 224 237 207 230 174 126 204 206 201 236 205 174 142 117 93 195 187 223 210 135 201 257 203 142 155 261 236 270 282 304 326 357 10 9 11 4
212 222 179 182 220 198 192 174 185 212 213 198 197 229 187 197 254 224 200 161 205 172 132 111 230 248 270 278 219 219 226 229 204 237 226 270 272 284 319 17 355 348 343 340 334
214 177 175 199 185 191 195 197 196 207 160 224 226 214 193 221 197 191 142 186 191 143 130 131 246 110 287 290 260 253 250 251 247 255 253 259 270 26 333 351 347 341 326 318 321
218 223 206 187 165 174 192 199 204 176 214 206 206 164 211 236 135 196 199 165 145 161 142 147 179 67 265 338 346 309 240 241 185 209 194 217 191 340 339 336 333 320 310 327 333
Wind_Speed_850mb
17 19 22 27 31 34 32 29 31 35 37 37 38 25 10 18 43 62 77 55 43 42 33 32 16 24 29 24 21 16 10 5 9 8 7 10 4 6 11 16 12 14 18 12 15
14 17 20 24 30 33 32 27 28 30 32 32 25 35 18 7 31 65 54 51 39 40 40 35 39 25 17 20 19 17 8 20 8 8 7 12 8 9 5 8 19 35 37 28 24
13 15 17 21 24 29 29 29 31 33 31 31 29 24 40 4 19 45 46 48 45 30 36 40 29 31 21 25 27 14 4 4 6 14 18 14 9 12 7 11 32 17 19 27 26
12 14 14 18 20 25 32 33 31 30 30 26 29 24 24 25 10 34 39 41 45 32 30 27 35 14 12 13 15 14 14 2 10 14 14 12 10 10 30 15 10 16 27 24 26
12 13 15 18 21 24 30 33 31 28 31 21 22 26 13 26 24 30 33 35 37 45 47 18 45 11 10 8 8 11 5 2 6 14 14 10 18 15 33 27 33 30 28 30 29
15 16 16 17 17 20 27 31 28 25 29 21 14 25 20 18 30 35 33 27 33 36 46 48 19 18 20 11 10 9 11 11 8 7 10 9 7 8 11 20 32 30 31 29 32
15 16 16 17 17 21 27 27 26 23 25 20 13 4 25 21 29 36 33 30 30 32 32 36 36 8 7 7 13 15 4 3 11 11 9 15 9 16 12 17 26 29 24 26 29
12 14 16 18 21 24 28 29 23 17 20 16 13 6 9 20 26 37 31 30 24 22 22 21 21 28 15 13 5 5 5 8 5 8 4 7 14 9 17 21 29 32 33 31 27
12 16 19 21 22 25 28 30 20 12 20 12 11 5 6 16 25 36 36 29 17 15 22 19 12 16 12 5 7 15 7 9 9 18 5 0 16 9 15 23 32 32 32 33 32
13 16 19 21 23 24 27 28 18 8 22 5 10 4 11 19 20 32 35 22 18 18 7 13 14 9 10 19 8 11 11 11 9 4 4 11 27 21 35 35 41 37 37 36 35
13 16 18 20 22 24 25 18 12 3 24 14 11 5 12 24 14 29 35 18 20 15 11 14 18 10 10 5 7 10 8 10 9 0 14 8 16 24 18 36 41 45 41 42 42
9 13 16 17 17 21 23 15 15 8 7 11 11 9 11 21 9 31 32 18 19 11 20 12 7 7 12 4 4 6 8 10 16 9 9 12 24 10 7 12 33 40 38 40 40
8 10 12 15 13 18 22 24 22 21 4 6 10 9 9 16 10 26 32 13 15 11 13 9 7 16 4 7 14 6 8 10 11 20 5 16 12 12 3 5 15 29 37 38 38
12 13 13 14 7 16 14 22 24 21 9 7 8 7 10 12 7 17 24 14 11 6 5 8 8 8 9 10 8 12 4 6 13 14 3 14 7 8 9 16 8 20 26 33 35
14 14 12 10 8 10 12 18 20 7 8 4 6 9 13 8 11 11 18 9 5 5 1 3 9 9 10 5 4 10 5 5 3 5 5 18 9 13 11 12 13 26 33 34 31
13 10 9 7 5 9 12 15 8 12 10 7 6 8 8 7 7 10 8 10 7 4 8 4 3 4 3 6 5 11 4 2 5 4 7 7 8 11 8 10 13 20 38 45 48
8 3 4 6 6 9 13 9 10 9 7 8 3 7 4 8 8 8 7 8 3 9 8 4 3 3 7 8 3 9 10 9 12 10 9 5 6 16 13 9 8 12 30 42 57
10 7 6 6 6 7 8 10 7 6 12 2 2 2 3 6 2 8 5 7 3 7 4 4 11 6 10 6 2 7 4 9 9 5 10 6 9 7 8 4 22 24 35 50 73
14 12 12 10 9 5 2 7 14 13 5 8 3 0 6 1 2 9 2 5 4 5 9 6 9 1 5 3 2 4 5 6 13 3 7 7 15 14 9 3 28 40 49 58 60
15 14 20 19 17 11 7 11 7 7 6 2 7 8 7 6 2 1 4 4 7 6 3 7 6 2 2 2 6 2 7 5 6 2 8 10 10 11 12 7 15 30 43 53 63
13 8 9 9 12 12 7 14 10 14 13 10 11 7 8 5 9 7 8 2 4 4 3 6 6 4 3 9 10 3 2 5 4 7 9 5 11 14 8 5 8 14 46 61 71
11 4 8 16 6 2 6 12 3 9 14 11 6 14 13 10 8 10 14 6 4 2 6 1 8 6 12 0 2 5 7 8 8 10 7 4 15 20 14 16 33 66 70 73 71
12 17 19 24 6 5 7 6 8 9 11 11 13 14 9 15 5 11 4 1 2 8 10 9 3 5 13 5 3 8 8 7 7 6 13 7 14 6 31 60 62 61 70 69 56
14 3 17 33 20 12 10 12 10 16 9 10 6 5 6 10 8 9 7 8 4 5 6 1 1 13 12 8 8 7 6 7 10 6 26 27 54 38 31 23 37 41 55 42 50
29 18 24 8 12 19 18 12 13 13 18 17 4 12 13 11 5 11 8 6 5 6 5 7 9 6 9 10 7 12 17 21 20 33 21 46 39 35 27 14 30 37 54 60 46
29 16 18 9 17 34 27 19 25 7 18 11 12 15 15 20 23 12 11 7 8 4 7 4 6 5 8 9 8 10 20 29 32 27 21 34 42 11 25 34 39 50 64 58 36
63 46 27 21 14 13 17 25 29 29 22 16 28 12 12 20 7 4 9 3 11 11 7 5 6 4 11 5 9 13 23 29 9 12 12 11 4 19 26 42 45 62 67 49 58
Wind_Direction_850mb
55 46 44 36 30 28 22 18 18 20 22 25 30 31 20 23 29 27 33 16 12 22 22 30 100 84 89 55 47 102 86 138 185 177 193 175 219 254 259 264 268 241 243 249 216
34 30 30 26 26 27 27 24 20 20 19 18 22 30 23 37 29 31 27 24 22 28 39 46 49 65 55 19 21 49 96 183 143 123 149 166 203 221 260 266 261 246 244 240 242
13 16 18 18 19 21 20 18 14 15 15 15 17 20 19 73 36 12 22 22 28 39 49 56 61 59 44 38 13 20 85 96 209 173 165 170 226 218 200 250 232 233 249 238 244
6 7 7 5 4 9 14 11 8 12 12 14 18 24 38 41 63 10 26 26 34 40 48 54 53 47 57 53 22 87 61 122 163 183 165 176 182 239 212 231 224 237 250 251 245
358 355 354 354 356 2 5 4 2 3 7 9 16 21 43 51 29 23 32 31 40 40 41 43 49 68 64 56 69 80 165 103 179 192 219 223 231 235 246 241 242 249 255 250 243
6 0 0 356 354 353 354 356 356 357 2 2 14 33 43 68 22 24 30 34 42 40 43 48 58 71 97 65 55 106 134 149 180 217 242 219 256 208 283 228 225 238 247 248 245
11 6 6 2 356 348 348 351 351 350 357 1 7 23 39 51 27 19 21 30 38 40 42 48 52 79 81 84 113 135 51 212 220 208 242 223 270 240 245 219 215 216 232 240 242
8 2 3 358 351 348 349 348 352 355 352 2 7 24 67 24 21 20 23 25 29 32 37 37 39 53 44 106 86 15 110 17 192 180 179 110 276 275 236 222 228 229 226 223 227
354 357 0 356 351 351 350 346 354 4 1 4 9 50 43 6 9 13 12 16 21 22 36 32 44 56 30 39 30 14 334 358 348 199 135 172 281 256 240 237 255 247 244 241 235
357 354 353 355 352 355 353 346 350 20 1 10 14 28 29 350 356 5 2 0 12 15 38 36 51 60 18 23 21 314 354 322 292 348 315 233 260 270 246 230 251 264 260 252 248
353 356 354 353 353 356 359 358 358 340 20 47 9 10 339 349 7 2 5 0 359 26 21 20 53 21 318 305 284 276 276 294 270 98 345 253 274 286 265 223 243 252 256 255 257
348 348 347 350 354 0 5 43 47 358 331 16 16 8 358 0 353 7 6 25 28 13 345 23 53 295 288 319 203 49 323 333 280 277 355 331 308 308 147 238 235 246 255 260 265
321 334 339 342 349 358 14 25 13 359 344 357 10 8 0 2 18 357 9 23 51 41 15 65 331 321 328 13 20 29 68 332 242 315 278 318 329 357 18 296 282 263 263 266 266
310 319 332 341 344 359 13 1 352 355 64 317 346 350 352 353 21 7 11 21 37 61 68 102 317 349 358 46 6 354 144 269 314 4 331 13 282 327 338 327 307 309 281 277 273
293 300 318 336 346 7 351 346 340 4 18 296 315 334 353 50 329 9 7 21 74 10 33 305 8 18 46 329 1 270 339 282 325 6 43 346 57 278 350 4 0 6 6 357 321
280 300 319 325 348 358 349 342 349 41 260 348 315 349 4 17 17 332 357 25 77 96 44 73 25 38 260 288 227 304 319 92 52 54 23 279 93 295 344 323 315 349 20 33 40
251 293 345 357 345 348 344 345 31 128 329 288 327 23 1 326 355 31 16 9 41 34 352 7 73 15 1 326 196 3 31 355 2 9 234 113 23 244 306 315 307 343 28 44 31
236 259 280 298 321 334 344 47 104 232 223 178 230 253 305 5 282 331 1 348 205 100 91 102 324 24 354 71 315 7 97 137 239 249 274 353 239 224 266 18 66 59 57 32 21
241 258 274 265 262 288 300 66 210 206 153 174 146 172 329 220 223 21 253 242 208 169 154 149 272 135 52 29 47 288 60 135 101 31 41 263 284 294 198 296 24 43 19 7 2
242 268 270 262 249 217 80 235 233 207 153 135 183 165 222 250 267 175 237 235 196 207 187 197 304 71 66 117 46 66 150 77 5 178 284 290 288 246 268 13 8 19 2 353 351
238 266 232 197 176 168 173 225 251 221 200 177 211 199 218 249 205 227 234 300 25 173 169 125 120 285 338 198 182 91 209 36 119 150 177 260 253 214 250 325 346 331 346 346 341
194 286 200 177 141 106 168 196 233 221 221 250 235 192 190 194 230 236 228 227 28 148 191 152 151 209 227 135 300 283 255 163 131 258 246 174 262 286 0 344 342 346 340 341 344
213 209 202 181 171 242 266 250 234 204 216 197 227 214 189 184 260 198 220 160 204 171 168 190 261 5 334 1 18 235 205 163 100 59 212 200 256 310 336 352 338 344 355 352 15
206 205 194 195 206 180 194 218 240 224 237 207 230 174 126 204 206 201 236 205 174 142 117 93 195 187 223 210 135 201 257 203 142 155 261 236 270 282 304 326 357 10 9 11 4
212 222 179 182 220 198 192 174 185 212 213 198 197 229 187 197 254 224 200 161 205 172 132 111 230 248 270 278 219 219 226 229 204 237 226 270 272 284 319 17 355 348 343 340 334
214 177 175 199 185 191 195 197 196 207 160 224 226 214 193 221 197 191 142 186 191 143 130 131 246 110 287 290 260 253 250 251 247 255 253 259 270 26 333 351 347 341 326 318 321
218 223 206 187 165 174 192 199 204 176 214 206 206 164 211 236 135 196 199 165 145 161 142 147 179 67 265 338 346 309 240 241 185 209 194 217 191 340 339 336 333 320 310 327 333